This demonstration page uses our WeatherBlox Daily Observations layout. Learn more.

Left ArrowRight Arrow

40.97296, -117.73568

Hourly Observations for March 21, 2016

Temp ( °F °C ) Dew Point ( °F °C ) Humidity (%) Winds ( mph kmh ) Pressure ( in mb ) Visibility ( mi km ) Precip ( " mm )
12:56 am 00:56 Mostly Cloudy 45 7.2 37 2.8 74 74 ESE 6 9 29.90 1013 10 16 0.00 0.00
1:56 am 01:56 Cloudy 47 8.3 37 2.8 69 69 E 6 9 29.89 1012 10 16 0.00 0.00
2:56 am 02:56 Cloudy 46 7.8 37 2.8 71 71 S 3 6 29.88 1012 10 16 0.00 0.00
3:56 am 03:56 Mostly Cloudy 46 7.8 36 2.2 68 68 Calm 29.86 1011 10 16 0.00 0.00
4:56 am 04:56 Partly Cloudy 44 6.7 34 1.1 68 68 WSW 5 7 29.87 1012 10 16 0.00 0.00
5:56 am 05:56 Mostly Cloudy 46 7.8 34 1.1 63 63 SW 7 11 29.87 1012 10 16 0.00 0.00
6:56 am 06:56 Mostly Cloudy 45 7.2 34 1.1 66 66 SSW 8 13 29.90 1012 10 16 0.00 0.00
7:56 am 07:56 Mostly Sunny 43 6.1 36 2.2 76 76 E 3 6 29.91 1013 10 16 0.00 0.00
8:56 am 08:56 Sunny 49 9.4 36 2.2 61 61 W 5 7 29.87 1012 10 16 0.00 0.00
9:56 am 09:56 Sunny 53 11.7 37 2.8 55 55 WNW 7 11 29.86 1011 10 16 0.00 0.00
10:56 am 10:56 Mostly Cloudy 55 12.8 36 2.2 49 49 WSW 9 15 29.84 1011 10 16 0.00 0.00
11:56 am 11:56 Mostly Sunny 61 16.1 30 -1.1 31 31 WSW 15 24 29.79 1009 10 16 0.00 0.00
12:56 pm 12:56 Mostly Cloudy 60 15.6 31 -0.6 33 33 W 18 30 29.78 1008 10 16 0.00 0.00
1:56 pm 13:56 Sunny 63 17.2 27 -2.8 26 26 SW 23 37 29.72 1006 10 16 0.00 0.00
2:56 pm 14:56 Sunny 63 17.2 24 -4.4 23 23 SW 18 30 29.69 1005 10 16 0.00 0.00
3:56 pm 15:56 Mostly Cloudy 63 17.2 22 -5.6 21 21 SW 28 44 29.67 1005 10 16 0.00 0.00
4:56 pm 16:56 Sunny 61 16.1 21 -6.1 21 21 SW 29 46 29.67 1005 10 16 0.00 0.00
5:56 pm 17:56 Sunny 56 13.3 22 -5.6 27 27 SW 36 57 29.69 1006 10 16 0.00 0.00
6:56 pm 18:56 Cloudy with Haze 50 10 27 -2.8 41 41 W 16 26 29.74 1007 6 10 0.00 0.00
7:56 pm 19:56 Cloudy 48 8.9 28 -2.2 46 46 W 25 41 29.78 1009 10 16 0.00 0.00
8:56 pm 20:56 Cloudy 42 5.6 30 -1.1 62 62 W 20 31 29.83 1010 10 16 0.00 0.03
9:56 pm 21:56 Cloudy with Light Rain 40 4.4 32 0 73 73 W 7 11 29.83 1010 10 16 0.00 0.03
10:56 pm 22:56 Cloudy 40 4.4 30 -1.1 68 68 WSW 13 20 29.83 1010 10 16 0.00 0.03
11:56 pm 23:56 Cloudy with Light Rain 36 2.2 32 0 86 86 W 20 31 29.85 1011 10 16 0.00 0.03

Powered by AerisWeather